User: anonymous   Login
Location: *
(48.8489°N, 2.3218°E)
Time: 10:48:54
(UTC+00:00)
Language:

S3M - Orbit

View from above orbital plane
View from above orbital plane
View from above satellite
View from above satellite

Ground track
Ground track

The orbit data is extracted from the following two-line orbital elements,

1 12508U 81053B   19295.19883530  .00000039  00000-0  24644-4 0  9992
2 12508  82.9604 228.3116 0036988 332.2511  27.6672 13.76352368933325
Epoch (UTC): 22 October 2019 04:46:19
Eccentricity: 0.0036988
inclination: 82.9604°
perigee height: 949 km
apogee height: 1004 km
right ascension of ascending node: 228.3116°
argument of perigee: 332.2511°
revolutions per day: 13.76352368
mean anomaly at epoch: 27.6672°
orbit number at epoch: 93332

The dashed part of the orbit path shows where the satellite is in the earth's shadow,  

DLR